ZHUHAI-1 02 (CAS 4B) (42759 NORAD) Tracking and Keplerian Element Data

This shows tracking and keplerian element data for the satellite.

Feedback or suggestion? Click here.




ElementValue
Catalog42759
NameZHUHAI-1 02 (CAS 4B)
Epoch Orbit17408
Epoch Day223.14790566
Epoch Year2020
RAAN92.0332
Inclination43.019
Eccentricity0.0011276
Argument of Perigee2.7206
Mean Anonmoly139.5653
Mean Motion15.09857199
Decay Rate1.12E-06
L11 42759U 17034B 20223.14790566 .00000112 00000-0 20296-4 0 9996
L22 42759 43.0190 92.0332 0011276 2.7206 139.5653 15.09857199174085

Live tracking and technical data element details for ZHUHAI-1 02 (CAS 4B) (NORAD 42759). ZHUHAI-1 02 (CAS 4B) can be tracked NOW for your location showing map with azimuth and elevation plus other details from your city location.

Track the satellite on the map from your city or location and see movement details for azimuth, elevation, latitude, longitude, range, height, and movement on the map or in text.







IsCatalogInMostPopularTable: catalog: 42759, numindb: 623
Update: records affected: 1



GetName: 42759 ZHUHAI-1 02 (CAS 4B)

Hit Count: updated at: Mon, 10 Aug 2020 20:59:33 GMT